Tracking 29892 objects as of 21-Nov-2024
HD Live streaming from Space Station
objects crossing your sky now

STARLINK-5003

Track STARLINK-5003 now!
10-day predictions
STARLINK-5003 is classified as:


NORAD ID: 53905
Int'l Code: 2022-119V
Perigee: 545.8 km
Apogee: 547.9 km
Inclination: 53.2 °
Period: 95.4 minutes
Semi major axis: 6917 km
RCS: Unknown
Launch date: September 24, 2022
Source: United States (US)
Launch site: AIR FORCE EASTERN TEST RANGE (AFETR)
Your satellite tracking list
Your tracking list is empty




NASA's NSSDC Master Catalog

Two Line Element Set (TLE):
1 53905U 22119V   24324.89346395  .00000639  00000-0  58268-4 0  9990
2 53905  53.2171 285.7829 0001514  93.1641 266.9525 15.08839386119725
Source of the keplerian elements: AFSPC